Regional Weather Roundup
Issued by NWS

Home | Current Version | Previous Version | Graphics & Text | Print | Product List | Glossary On
Versions: 1 2 3 4 5 6 7 8 9 10 11 12 13 14 15 16 17 18 19 20 21 22 23 24 25 26 27 28 29 30 31 32 33 34 35 36 37 38 39 40 41 42 43 44 45 46 47 48 49 50
000
ASUS43 KBIS 041410
RWRND

NORTH DAKOTA REGIONAL WEATHER ROUNDUP
NATIONAL WEATHER SERVICE BISMARCK ND
900 AM CDT SAT JUL 04 2015

NOTE: "FAIR" INDICATES FEW OR NO CLOUDS BELOW 12,000 FEET WITH NO
SIGNIFICANT WEATHER AND/OR OBSTRUCTIONS TO VISIBILITY.


NDZ001>003-009>011-017-041500-
NORTHWEST NORTH DAKOTA

CITY           SKY/WX    TMP DP  RH WIND       PRES   REMARKS
WILLISTON      SUNNY     73  62  68 S5        29.76S HAZE
MINOT          SUNNY     74  62  66 S8        29.77F HAZE
MINOT AFB      SUNNY     74  74  99 S8        29.76F
$$

NDZ018>021-031>035-040>046-041500-
SOUTHWEST NORTH DAKOTA

CITY           SKY/WX    TMP DP  RH WIND       PRES   REMARKS
BISMARCK       SUNNY     70  66  87 SE8       29.83F FOG
DICKINSON      SUNNY     71  62  73 S12       29.80F HAZE
GARRISON         N/A     70  64  81 S8        29.81S
HETTINGER ARPT MOSUNNY   69  61  75 SE9       29.84F HAZE
$$

NDZ004>008-012>016-024-026-027-054-041500-
NORTHEAST NORTH DAKOTA

CITY           SKY/WX    TMP DP  RH WIND       PRES   REMARKS
GRAND FORKS    CLOUDY    69  63  81 SE9       29.86F HAZE
GRND FRKS AFB  SUNNY     71  64  81 S7        29.86F HAZE
DEVILS LAKE    SUNNY     72  63  73 S10       29.83S
$$

NDZ022-023-025-028>030-036>039-047>053-041500-
SOUTHEAST NORTH DAKOTA

CITY           SKY/WX    TMP DP  RH WIND       PRES   REMARKS
FARGO          SUNNY     72  64  76 SE9       29.88F HAZE
JAMESTOWN      MOSUNNY   71  65  81 S7        29.87S HAZE
$$



USA.gov is the U.S. government's official web portal to all federal, state and local government web resources and services.